Retour au catalogue

ONEWEB-0129

ActifCommunicationsPO
NORAD 47275·PAYLOAD·🇬🇧 United Kingdom

Lancé Dec 18, 2020 depuis Vostochny Cosmodrome

Loading…

Prochains Passages (prochaines 24 heures)

TLE

FraisSource: CelesTrak SupGP

Époque: Sep 14, 2026, 14:40 UTC

1 47275C 20100T   26257.61128889  .00004099  00000+0  11408-1 0  2576
2 47275  87.8989 332.9068 0000795  96.9638   8.5429 13.12438645    15

Suivez ONEWEB-0129 en temps réel avec AllMySat

Download on the App Store